Location: Beutels
(47.8767°N, 9.8584°E)
Time: 16:15:20
(UTC+00:00)

Landsat 5 - Pass Details

Date: 19 May 2025
Orbit: 510 x 610 km, 98.1° (Epoch: 16 June)

Event Time Altitude Azimuth Distance (km) Brightness Sun altitude
Rises 21:53:36 0° 20° (NNE) 2,817 7.7 -19.6°
Reaches altitude 10° 21:55:52 10° 29° (NNE) 1,927 6.6 -19.7°
Maximum altitude 21:59:48 39° 98° (E) 907 4.1 -20.0°
Enters shadow 22:00:07 38° 110° (ESE) 919 4.1 -20.0°
